PEGASUS DEB, 39320

Orbit data source: Space-Track

PEGASUS DEB, 39320 is space debris in LEO originally from a launch on Thu, 19 May 1994 UTC launched from the Air Force Western Test Range (AFWTR). Debris objects in space refer to the collection of defunct objects orbiting the Earth. Examples of debris include non-operational satellites, rocket bodies, and fragments generated from explosions, collisions, or faulty payload assembly.

Loading next visibility...
Identifier
39320, 1994-029AFF
Orbit
LEO
Country
Flag of USUS
Related business
Manufacturer
Unknown
Mission
Spacecraft
Bus & Motor
Unknown
Mass
Unknown
Launch date (UTC)
1994-05-19 (32 years ago)
Launch vehicle
Unknown
Launch site
Air Force Western Test Range (AFWTR)
Object type
Payload
Rocket body
Debris
Shape & HBR
Unknown shape, 0.1 m
Radar Cross Section
Small (<0.1 m²)

Expand to show TLE details & history
Last TLE update: 15 hours ago

TLE from 15 hours ago
0 PEGASUS DEB
1 39320U 94029AFF 26120.37246921  .00001450  00000-0  33489-3 0  9996
2 39320  81.7546 139.0493 0281315 148.9042 212.9144 14.33046560720416
Epoch: 2026-04-30T08:56Z
TLE epoch observation values (Epoch: 2026-04-30T08:56:21.339Z)
Latitude
0.00004°
Longitude
146.64037°
Altitude
955.252 km
Speed
7.286 km/s
True Right ascension
09h 16m 11s
True Declination
0° 00' 00"
Sunlit
Object was in daylight at epoch
Visualization orbit readout
Latitude
Unknown
Longitude
Unknown
Altitude
Unknown
Speed
Unknown
Apparent Right ascension
Unknown
Apparent Declination
Unknown
Sunlit
N/A
Visualization observer readout
Local Sidereal Time
07:22:44
Azimuth
Unknown
Elevation
Unknown
Doppler factor
Unknown
Orbital elements
Apogee altitude
980.013 km
Perigee altitude
577.349 km
Semi-major axis
7,156.818 km
Eccentricity
0.02813
Inclination
81.7546°
RAAN
139.0493°
Arg. of periapsis
148.9042°
True anomaly
211.21326°
Mean anomaly
212.9144°
Eccentric anomaly
212.05886°
Mean motion
3.58479 °/min
Orbital period
100.42 mins
BSTAR
0.00033489
Loading maneuver chart data...
Computing Atmospheric mass density...
Loading historical data...
Loading historical data...
Loading historical data...
Loading historical data...
Loading historical data...
Loading historical data...
Loading historical data...

Documentation

Showing up to 5 results
|